Home   Weather   Rheinfelden (Baden)   Past weeks
Flag for Germany

Past Weather in Rheinfelden (Baden), Baden-Württemberg, Germany — Yesterday and Last 2 Weeks

Now
50 °F

Clear.


Feels Like: 49 °F
Forecast: 65 / 46 °F
Wind: 3 mph from South

Location: Bale-Mulhouse

Current Time: Oct 14, 2019 at 6:24:07 am

Latest Report: Oct 14, 2019 at 5:30 am


Visibility: 10 mi

Pressure: 30.01 "Hg

Humidity: 94%

Dew Point: 48 °F

Location of Rheinfelden (Baden)Location

Past Weather in Rheinfelden (Baden) — Graph

°F

Rheinfelden (Baden) Temperature Yesterday

Maximum temperature yesterday: 79 °F (at 3:30 pm)
Minimum temperature yesterday: 54 °F (at 5:30 am)
Average temperature yesterday: 64 °F

High & Low Weather Summary for the Past Weeks

 TemperatureHumidityPressure
High79 °F (Sep 29, 5:00 pm)100% (Sep 29, 5:30 am)30.21 "Hg (Sep 29, 5:30 am)
Low39 °F (Oct 3, 7:00 am)26% (Sep 29, 5:00 pm)29.71 "Hg (Oct 2, 5:00 am)
Average56 °F82%29.99 "Hg
* Reported Sep 29 5:00 am — Oct 14 5:00 am, Rheinfelden (Baden). Weather by CustomWeather, © 2019

Note: Actual official high and low records may vary slightly from our data, if they occured in-between our weather recording intervals... More about our weather records

Advertising

Rheinfelden (Baden) Weather History for the Previous 24 Hours

Scroll right to see more
 ConditionsComfort  
Time TempWeatherWind HumidityBarometerVisibility
5:00 am
Mon, Oct 14
50 °FClear.3 mph94%30.04 "Hg10 mi
4:30 am52 °FClear.2 mph100%30.04 "Hg10 mi
4:00 am50 °FClear.3 mph100%30.04 "Hg10 mi
3:30 am52 °FClear.3 mph94%30.04 "Hg10 mi
3:00 am52 °FClear.3 mph100%30.04 "Hg10 mi
2:30 am52 °FClear.3 mph100%30.04 "Hg10 mi
2:00 am52 °FClear.5 mph100%30.04 "Hg10 mi
1:30 am54 °FClear.3 mph94%30.04 "Hg10 mi
1:00 am54 °FPassing clouds.3 mph94%30.04 "HgN/A
12:30 am55 °FClear.3 mph88%30.04 "Hg10 mi
12:00 am55 °FPassing clouds.3 mph94%30.04 "HgN/A
11:30 pm
Sun, Oct 13
57 °FClear.5 mph88%30.04 "Hg10 mi
11:00 pm57 °FClear.6 mph94%30.01 "Hg10 mi
10:30 pm57 °FClear.5 mph94%30.01 "Hg10 mi
10:00 pm57 °FClear.2 mph94%30.01 "Hg10 mi
9:30 pm59 °FPassing clouds.3 mph88%29.98 "HgN/A
9:00 pm61 °FClear.6 mph88%29.98 "Hg10 mi
8:30 pm61 °FClear.3 mph88%29.98 "Hg10 mi
8:00 pm63 °FPassing clouds.3 mph83%29.98 "HgN/A
7:30 pm64 °FPassing clouds.3 mph78%29.98 "HgN/A
7:00 pm70 °FClear.2 mph69%29.95 "Hg10 mi
6:30 pm73 °FPassing clouds.3 mph61%29.95 "HgN/A
6:00 pm75 °FPassing clouds.5 mph57%29.95 "HgN/A
5:30 pm77 °FSunny.5 mph54%29.95 "Hg10 mi
5:00 pm79 °FSunny.3 mph48%29.95 "Hg10 mi
4:30 pm79 °FPassing clouds.5 mph51%29.95 "HgN/A
4:00 pm79 °FPassing clouds.5 mph48%29.95 "HgN/A
3:30 pm79 °FPassing clouds.7 mph51%29.95 "HgN/A
3:00 pm77 °FPassing clouds.5 mph51%29.98 "HgN/A
2:30 pm77 °FPassing clouds.3 mph51%29.98 "HgN/A
2:00 pm77 °FSunny.2 mph54%29.98 "Hg10 mi
1:30 pm75 °FPassing clouds.5 mph57%29.98 "HgN/A
1:00 pm70 °FSunny.3 mph69%30.01 "Hg10 mi
12:30 pm70 °FPassing clouds.5 mph64%30.01 "HgN/A
12:00 pm70 °FSunny.10 mph64%30.01 "Hg10 mi
11:30 am70 °FSunny.10 mph64%30.01 "Hg10 mi
11:00 am68 °FSunny.9 mph69%30.01 "Hg10 mi
10:30 am66 °FSunny.10 mph68%30.01 "Hg10 mi
10:00 am63 °FSunny.7 mph77%30.01 "Hg10 mi
9:30 am61 °FSunny.7 mph83%29.98 "Hg10 mi
9:00 am57 °FSunny.8 mph88%30.01 "Hg10 mi
8:30 am55 °FSunny.7 mph94%30.01 "Hg10 mi
8:00 am54 °FSunny.6 mph94%30.01 "Hg10 mi
7:30 am55 °FClear.7 mph88%30.01 "Hg10 mi
7:00 am55 °FClear.6 mph94%30.01 "Hg10 mi
6:30 am55 °FClear.6 mph88%30.01 "Hg10 mi
6:00 am55 °FClear.5 mph94%30.01 "Hg10 mi
Weather by CustomWeather, © 2019

See weather overview